When you browse on this site, cookies collect data to enhance your experience and personalize the content and advertising you see.
Visit our Privacy Policy to learn more. By continuing to use the site, you agree to this use of cookies and data.
  • In Lithuania
  • List of Countries
  • For 7 days
  • Water Temperature
  • Weather Map
  • Weather Widgets
  • user-avatar
    Login

    Hourly Weather Muyinga

    Today, 16 December, Monday

    Time Temperature Precipitation Wind Pressure Humidity
    00:00 +15°C° 0 mm 0 mps 627 mmHg 94%
    01:00 +14°C° 0 mm 0 mps 627 mmHg 94%
    02:00 +14°C° 0 mm 0 mps 626 mmHg 92%
    03:00 +14°C° 0 mm 0 mps 626 mmHg 93%
    04:00 +14°C° 0 mm 0 mps 626 mmHg 93%
    05:00 +13°C° 0 mm 0 mps 627 mmHg 94%
    06:00 +15°C° 0 mm 0 mps 627 mmHg 91%
    07:00 +17°C° 0 mm 0 mps 628 mmHg 89%
    08:00 +19°C° 0 mm 0 mps 629 mmHg 86%
    09:00 +21°C° 0.2 mm 0 mps 629 mmHg 79%
    10:00 +23°C° 0.2 mm 0 mps 630 mmHg 71%
    11:00 +25°C° 0.2 mm 0 mps 630 mmHg 63%
    12:00 +26°C° 0.8 mm 1 mps 629 mmHg 68%
    13:00 +25°C° 0.8 mm 1 mps 628 mmHg 72%
    14:00 +25°C° 0.8 mm 1 mps 627 mmHg 77%
    15:00 +24°C° 1.5 mm 1 mps 626 mmHg 81%
    16:00 +23°C° 1.5 mm 1 mps 626 mmHg 86%
    17:00 +23°C° 1.5 mm 1 mps 626 mmHg 90%
    18:00 +19°C° 0.6 mm 0 mps 626 mmHg 90%
    19:00 +18°C° 0.6 mm 0 mps 626 mmHg 91%
    20:00 +16°C° 0.6 mm 0 mps 626 mmHg 91%
    21:00 +16°C° 0.3 mm 0 mps 626 mmHg 91%
    22:00 +16°C° 0.3 mm 0 mps 627 mmHg 92%
    23:00 +15°C° 0.3 mm 0 mps 627 mmHg 92%

    Tomorrow, 17 December, Tuesday

    Time Temperature Precipitation Wind Pressure Humidity
    00:00 +15°C° 0.1 mm 0 mps 626 mmHg 93%
    01:00 +15°C° 0.1 mm 0 mps 626 mmHg 93%
    02:00 +14°C° 0.1 mm 0 mps 625 mmHg 93%
    03:00 +14°C° 0 mm 0 mps 625 mmHg 94%
    04:00 +14°C° 0 mm 0 mps 626 mmHg 94%
    05:00 +14°C° 0 mm 0 mps 626 mmHg 95%
    06:00 +15°C° 0 mm 0 mps 627 mmHg 92%
    07:00 +17°C° 0 mm 0 mps 628 mmHg 90%
    08:00 +19°C° 0 mm 0 mps 628 mmHg 87%
    09:00 +20°C° 0.8 mm 0 mps 629 mmHg 83%
    10:00 +22°C° 0.8 mm 0 mps 629 mmHg 78%
    11:00 +24°C° 0.8 mm 0 mps 629 mmHg 73%
    12:00 +24°C° 0.8 mm 0 mps 628 mmHg 73%
    13:00 +25°C° 0.8 mm 1 mps 628 mmHg 73%
    14:00 +25°C° 0.8 mm 1 mps 627 mmHg 73%
    15:00 +24°C° 0.7 mm 1 mps 627 mmHg 78%
    16:00 +23°C° 0.7 mm 1 mps 626 mmHg 83%
    17:00 +23°C° 0.7 mm 1 mps 626 mmHg 87%
    18:00 +21°C° 0.5 mm 1 mps 626 mmHg 90%
    19:00 +20°C° 0.5 mm 1 mps 627 mmHg 92%
    20:00 +18°C° 0.5 mm 1 mps 627 mmHg 94%
    21:00 +16°C° 0.3 mm 0 mps 627 mmHg 94%
    22:00 +16°C° 0.3 mm 0 mps 627 mmHg 94%
    23:00 +16°C° 0.3 mm 0 mps 627 mmHg 94%

    Day after tomorrow, 18 December, Wednesday

    Time Temperature Precipitation Wind Pressure Humidity
    00:00 +15°C° 0.2 mm 0 mps 626 mmHg 94%
    01:00 +15°C° 0.2 mm 0 mps 626 mmHg 95%
    02:00 +15°C° 0.2 mm 0 mps 626 mmHg 95%
    03:00 +15°C° 0 mm 0 mps 626 mmHg 95%
    04:00 +15°C° 0 mm 0 mps 626 mmHg 95%
    05:00 +15°C° 0 mm 0 mps 626 mmHg 95%
    06:00 +16°C° 0 mm 0 mps 627 mmHg 93%
    07:00 +17°C° 0 mm 0 mps 628 mmHg 91%
    08:00 +19°C° 0 mm 0 mps 628 mmHg 89%
    09:00 +22°C° 1.4 mm 1 mps 628 mmHg 86%
    10:00 +23°C° 1.4 mm 1 mps 628 mmHg 83%
    11:00 +24°C° 1.4 mm 2 mps 628 mmHg 80%
    12:00 +24°C° 1 mm 2 mps 628 mmHg 79%
    13:00 +25°C° 1 mm 2 mps 627 mmHg 77%
    14:00 +25°C° 1 mm 2 mps 626 mmHg 76%
    15:00 +24°C° 1.3 mm 2 mps 626 mmHg 81%
    16:00 +23°C° 1.3 mm 1 mps 626 mmHg 86%
    17:00 +23°C° 1.3 mm 1 mps 626 mmHg 90%
    18:00 +22°C° 1.6 mm 1 mps 626 mmHg 90%
    19:00 +21°C° 1.6 mm 1 mps 627 mmHg 90%
    20:00 +19°C° 1.6 mm 1 mps 627 mmHg 90%
    21:00 +19°C° 0.9 mm 1 mps 627 mmHg 91%
    22:00 +17°C° 0.9 mm 0 mps 627 mmHg 92%
    23:00 +17°C° 0.9 mm 0 mps 627 mmHg 93%

    19 December, Thursday

    Time Temperature Precipitation Wind Pressure Humidity
    00:00 +16°C° 0.3 mm 0 mps 627 mmHg 93%
    01:00 +16°C° 0.3 mm 0 mps 627 mmHg 93%
    02:00 +16°C° 0.3 mm 0 mps 626 mmHg 93%
    03:00 +16°C° 0.3 mm 0 mps 626 mmHg 94%
    04:00 +15°C° 0.3 mm 0 mps 626 mmHg 94%
    05:00 +15°C° 0.3 mm 0 mps 626 mmHg 95%
    06:00 +16°C° 0 mm 0 mps 627 mmHg 94%
    07:00 +17°C° 0 mm 0 mps 628 mmHg 92%
    08:00 +18°C° 0 mm 0 mps 629 mmHg 90%
    09:00 +21°C° 0.6 mm 1 mps 629 mmHg 86%
    10:00 +23°C° 0.6 mm 2 mps 629 mmHg 82%
    11:00 +24°C° 0.6 mm 2 mps 629 mmHg 77%
    12:00 +24°C° 0.8 mm 2 mps 628 mmHg 78%
    13:00 +24°C° 0.8 mm 2 mps 627 mmHg 79%
    14:00 +24°C° 0.8 mm 1 mps 627 mmHg 80%
    15:00 +23°C° 0.8 mm 1 mps 627 mmHg 84%
    16:00 +23°C° 0.8 mm 1 mps 626 mmHg 87%
    17:00 +22°C° 0.8 mm 1 mps 626 mmHg 91%
    18:00 +19°C° 0.4 mm 0 mps 627 mmHg 90%
    19:00 +18°C° 0.4 mm 0 mps 627 mmHg 90%
    20:00 +16°C° 0.4 mm 0 mps 627 mmHg 89%
    21:00 +16°C° 0.1 mm 0 mps 627 mmHg 90%
    22:00 +16°C° 0.1 mm 0 mps 627 mmHg 91%
    23:00 +15°C° 0.1 mm 0 mps 627 mmHg 92%

    20 December, Friday

    Time Temperature Precipitation Wind Pressure Humidity
    00:00 +15°C° 0 mm 0 mps 627 mmHg 92%
    01:00 +15°C° 0 mm 0 mps 626 mmHg 93%
    02:00 +15°C° 0 mm 0 mps 626 mmHg 93%
    03:00 +14°C° 0 mm 0 mps 626 mmHg 94%
    04:00 +14°C° 0 mm 0 mps 626 mmHg 94%
    05:00 +14°C° 0 mm 0 mps 627 mmHg 94%
    06:00 +16°C° 0 mm 0 mps 628 mmHg 91%
    07:00 +17°C° 0 mm 0 mps 628 mmHg 89%
    08:00 +19°C° 0 mm 0 mps 629 mmHg 87%
    09:00 +20°C° 0.4 mm 0 mps 630 mmHg 79%
    10:00 +24°C° 0.4 mm 1 mps 630 mmHg 71%
    11:00 +25°C° 0.4 mm 1 mps 630 mmHg 63%
    12:00 +25°C° 0.1 mm 1 mps 629 mmHg 63%
    13:00 +25°C° 0.1 mm 1 mps 629 mmHg 63%
    14:00 +25°C° 0.1 mm 1 mps 628 mmHg 62%
    15:00 +24°C° 0.5 mm 1 mps 627 mmHg 70%
    16:00 +23°C° 0.5 mm 1 mps 627 mmHg 78%
    17:00 +22°C° 0.5 mm 1 mps 627 mmHg 87%
    18:00 +21°C° 0.1 mm 1 mps 627 mmHg 89%
    19:00 +19°C° 0.1 mm 1 mps 627 mmHg 91%
    20:00 +16°C° 0.1 mm 0 mps 627 mmHg 93%
    21:00 +15°C° 0 mm 0 mps 627 mmHg 93%
    22:00 +15°C° 0 mm 0 mps 627 mmHg 94%
    23:00 +15°C° 0 mm 0 mps 627 mmHg 94%

    21 December, Saturday

    Time Temperature Precipitation Wind Pressure Humidity
    00:00 +14°C° 0 mm 0 mps 627 mmHg 94%
    01:00 +14°C° 0 mm 0 mps 626 mmHg 94%
    02:00 +14°C° 0 mm 0 mps 626 mmHg 95%
    03:00 +14°C° 0 mm 0 mps 626 mmHg 95%
    04:00 +14°C° 0 mm 0 mps 626 mmHg 95%
    05:00 +14°C° 0 mm 0 mps 627 mmHg 95%
    06:00 +15°C° 0 mm 0 mps 627 mmHg 93%
    07:00 +16°C° 0 mm 0 mps 628 mmHg 91%
    08:00 +17°C° 0 mm 0 mps 629 mmHg 90%
    09:00 +21°C° 0.3 mm 1 mps 629 mmHg 82%
    10:00 +22°C° 0.3 mm 1 mps 629 mmHg 75%
    11:00 +24°C° 0.3 mm 1 mps 629 mmHg 67%
    12:00 +24°C° 0.1 mm 2 mps 629 mmHg 64%
    13:00 +25°C° 0.1 mm 2 mps 628 mmHg 61%
    14:00 +25°C° 0.1 mm 3 mps 628 mmHg 58%
    15:00 +25°C° 0.3 mm 2 mps 628 mmHg 66%
    16:00 +24°C° 0.3 mm 1 mps 627 mmHg 74%
    17:00 +23°C° 0.3 mm 1 mps 627 mmHg 81%
    18:00 +21°C° 0.4 mm 1 mps 627 mmHg 84%
    19:00 +18°C° 0.4 mm 0 mps 627 mmHg 86%
    20:00 +16°C° 0.4 mm 0 mps 627 mmHg 88%
    21:00 +15°C° 0 mm 0 mps 627 mmHg 89%
    22:00 +15°C° 0 mm 0 mps 627 mmHg 91%
    23:00 +15°C° 0 mm 0 mps 627 mmHg 92%
    Show more